[[{"header":{"parameterUnit":"m.s-1","parameterCategory":1,"la1":30.2991,"la2":30.254,"lo1":-89.0895,"lo2":-89.0444,"dy":0.0017,"dx":0.0017,"nx":28,"ny":28,"refTime":"2024-02-18T03:00:00:Z","depth":0,"parameterNumber":2,"parameterNumberName":"U-component_of_WINDS"},"data":[0,0,0,0,0,0,0,0,0,0,0,0,0,0,0,0,0,0,0,0,0,0,0,0,0,0,0,0,0,0,0,0,0,0,0,0,0,0,0,0,0,0,0,0,0,0,0,0,0,0,0,0,0,0,0,0,0,0,-1.5232,-1.5232,0,-1.5296,-1.5297,-1.5297,-1.5274,-1.5273,-1.5271,-1.527,-1.5337,-1.534,-1.5344,0,0,0,0,0,0,0,0,0,0,0,0,0,-1.509,-1.5092,-1.5232,-1.5232,-1.5233,-1.5296,-1.5297,-1.5298,-1.5275,-1.5273,-1.5271,-1.5269,-1.5336,-1.534,-1.5344,0,0,0,0,0,0,0,0,0,0,0,0,0,-1.5152,-1.5093,-1.5231,-1.5229,-1.523,-1.5296,-1.5297,-1.5298,-1.5275,-1.5273,-1.5271,-1.5269,-1.5335,-1.534,-1.5344,-1.5417,0,0,-1.5359,-1.5361,0,0,0,0,0,0,0,0,-1.5149,-1.5158,-1.5229,-1.523,-1.523,-1.5275,-1.5271,-1.5338,-1.5276,-1.5258,-1.527,-1.5268,-1.5318,-1.5324,-1.5341,-1.542,-1.5423,-1.5359,-1.5362,-1.5364,-1.5365,0,0,0,0,0,0,0,-1.5145,-1.5155,-1.5257,-1.523,-1.5231,-1.5225,-1.5232,-1.5284,-1.53,-1.5259,-1.5258,-1.5266,-1.5318,-1.5337,-1.5343,-1.5424,-1.5359,-1.5363,-1.5366,-1.5368,-1.5565,-1.5567,0,0,0,0,0,0,-1.514,-1.5151,-1.5255,-1.5259,-1.5183,-1.523,-1.5237,-1.5263,-1.5299,-1.5302,-1.5267,-1.5264,-1.533,-1.5337,-1.5345,-1.5433,-1.5364,-1.5368,-1.5371,-1.5563,-1.5565,-1.5568,0,0,0,0,0,0,-1.5137,-1.5149,-1.5252,-1.5205,-1.5217,-1.5234,-1.5264,-1.5265,-1.5284,-1.5305,-1.5308,-1.5283,-1.5328,-1.5338,-1.5399,-1.5435,-1.5371,-1.5375,-1.556,-1.5563,-1.5567,-1.5608,0,0,0,0,0,0,-1.5133,-1.5148,-1.5176,-1.5206,-1.522,-1.5305,-1.5266,-1.5268,-1.5292,-1.5288,-1.5321,-1.5324,-1.5327,-1.5392,-1.5404,-1.544,-1.5378,-1.5557,-1.5561,-1.5566,-1.5604,-1.5613,-1.5621,0,0,0,0,0,-1.5128,-1.5185,-1.5177,-1.519,-1.5255,-1.5308,-1.5316,-1.5318,-1.5294,-1.5323,-1.5336,-1.5323,-1.5428,-1.5398,-1.5411,-1.545,-1.5554,-1.556,-1.5565,-1.56,-1.5611,-1.562,0,0,0,0,0,0,-1.516,-1.5189,-1.5181,-1.525,-1.5276,-1.5304,-1.5339,-1.533,-1.5364,-1.536,-1.5361,-1.5369,-1.5432,-1.5446,-1.5412,-1.5521,-1.5488,-1.5496,-1.551,-1.5521,-1.5529,-1.5525,-1.5382,0,0,0,0,0,-1.5175,-1.5215,-1.5238,-1.5297,-1.531,-1.5322,-1.5345,-1.5345,-1.5373,-1.5384,-1.5402,-1.543,-1.5469,-1.5495,-1.5533,-1.5605,-1.5612,-1.5637,-1.5646,-1.5653,-1.566,-1.57,-1.5712,-1.5586,-1.5586,-1.5586,0,0,-1.5207,-1.5228,-1.5253,-1.5304,-1.5324,-1.5366,-1.5332,-1.5378,-1.5409,-1.5391,-1.545,-1.5464,-1.5495,-1.5562,-1.5592,-1.5576,-1.5696,-1.5659,-1.5665,-1.5669,-1.5707,-1.5719,-1.5729,-1.559,-1.5589,-1.5588,0,0,-1.5287,-1.5306,-1.5357,-1.5378,-1.5409,-1.5417,-1.5429,-1.5457,-1.5466,-1.5524,-1.5512,-1.5549,-1.5616,-1.5639,-1.566,-1.5746,-1.5736,-1.5758,-1.5803,-1.5841,-1.5851,-1.586,-1.5892,-1.5904,-1.5765,-1.5766,-1.5766,0,-1.5323,-1.5385,-1.5385,-1.5431,-1.5454,-1.5439,-1.5491,-1.5511,-1.5553,-1.5569,-1.555,-1.5635,-1.5654,-1.5727,-1.5748,-1.5764,-1.5779,-1.5756,-1.585,-1.5859,-1.5867,-1.5898,-1.5909,-1.5768,-1.5768,-1.5768,-1.5767,0,-1.5428,-1.5471,-1.5509,-1.5549,-1.5576,-1.5625,-1.5632,-1.5659,-1.5656,-1.5665,-1.5725,-1.5748,-1.579,-1.5806,-1.5803,-1.5878,-1.5867,-1.5849,-1.5816,-1.5882,-1.591,-1.5922,-1.5772,-1.5771,-1.577,-1.577,0,0,-1.5532,-1.5571,-1.5585,-1.5603,-1.5635,-1.5669,-1.5717,-1.5757,-1.5781,-1.581,-1.5851,-1.5907,-1.5891,-1.5914,-1.5913,-1.5947,-1.6015,-1.5924,-1.5925,-1.5942,-1.6099,-1.6114,-1.6128,-1.6007,-1.6009,-1.6011,-1.6097,0,-1.5616,-1.57,-1.5701,-1.5779,-1.5819,-1.5804,-1.5845,-1.587,-1.588,-1.5915,-1.5926,-1.5966,-1.594,-1.5954,-1.5987,-1.6,-1.6047,-1.5993,-1.6046,-1.6048,-1.6041,-1.6143,-1.6159,-1.6239,-1.6108,-1.611,-1.6112,0,-1.5725,-1.5757,-1.5839,-1.5865,-1.5882,-1.592,-1.5956,-1.599,-1.6018,-1.6022,-1.6047,-1.6041,-1.609,-1.6054,-1.6122,-1.6085,-1.6107,-1.6116,-1.6119,-1.6126,-1.6085,-1.6154,-1.6265,-1.6277,-1.6129,-1.6128,-1.6126,0,-1.5794,-1.5858,-1.5915,-1.5931,-1.5962,-1.5989,-1.6004,-1.6029,-1.6053,-1.6085,-1.6101,-1.6138,-1.6159,-1.6188,-1.6192,-1.6165,-1.6261,-1.6224,-1.6267,-1.6267,-1.6289,-1.6288,-1.6407,-1.63,-1.63,-1.63,-1.6299,0,-1.5889,-1.594,-1.5946,-1.5982,-1.6039,-1.6038,-1.6094,-1.6106,-1.6129,-1.6166,-1.6155,-1.6191,-1.6193,-1.623,-1.6233,-1.6289,-1.6298,-1.6304,-1.6305,-1.6306,-1.6306,-1.6322,-1.6317,-1.6303,-1.6302,-1.6301,-1.6301,0,-1.5977,-1.5983,-1.6045,-1.6069,-1.6077,-1.6117,-1.6139,-1.6173,-1.618,-1.6228,-1.6239,-1.6251,-1.6294,-1.63,-1.635,-1.6352,-1.642,-1.6414,-1.6411,-1.6411,-1.6453,-1.645,-1.6588,-1.6606,-1.6486,-1.6487,-1.6488,0,-1.6037,-1.6076,-1.6105,-1.6129,-1.6145,-1.6184,-1.6208,-1.6208,-1.6234,-1.6268,-1.6298,-1.6339,-1.6372,-1.644,-1.6454,-1.6492,-1.6487,-1.6533,-1.6493,-1.6494,-1.649,-1.6488,-1.6492,-1.6542,-1.6543,-1.6544,-1.6545,0,-1.6145,-1.6146,-1.6181,-1.6217,-1.6246,-1.6275,-1.6302,-1.6323,-1.6326,-1.6356,-1.6399,-1.6424,-1.6475,-1.6516,-1.6553,-1.6568,-1.6558,-1.6557,-1.6569,-1.6572,-1.6569,-1.6572,-1.6434,-1.6554,-1.6553,-1.6553,-1.6552,-1.6552,-1.6222,-1.6256,-1.6281,-1.6321,-1.6341,-1.6366,-1.6399,-1.641,-1.6446,-1.6487,-1.6485,-1.6532,-1.6558,-1.6607,-1.6624,-1.6661,-1.6647,-1.6664,-1.6669,-1.6673,-1.6678,-1.6561,-1.6668,-1.6668,-1.6667,-1.6667,-1.6667,0,-1.633,-1.6345,-1.6381,-1.6419,-1.645,-1.6436,-1.6465,-1.6492,-1.6534,-1.6558,-1.6591,-1.664,-1.6679,-1.6695,-1.6734,-1.6761,-1.6757,-1.6771,-1.677,-1.6774,-1.6688,-1.6675,-1.6774,-1.6774,-1.6774,-1.6774,-1.6774,-1.6774,-1.639,-1.6447,-1.6451,-1.6517,-1.6532,-1.6578,-1.6596,-1.6619,-1.6639,-1.6694,-1.6727,-1.6736,-1.6758,-1.6797,-1.6833,-1.6837,-1.6852,-1.6869,-1.6871,-1.6791,-1.678,-1.677,-1.6757,-1.6872,-1.6872,-1.6953,-1.6954,-1.6955]},{"header":{"parameterUnit":"m.s-1","parameterCategory":1,"la1":30.2991,"la2":30.254,"lo1":-89.0895,"lo2":-89.0444,"dy":0.0017,"dx":0.0017,"nx":28,"ny":28,"refTime":"2024-02-18T03:00:00:Z","depth":0,"parameterNumber":3,"parameterNumberName":"V-component_of_WINDS"},"data":[0,0,0,0,0,0,0,0,0,0,0,0,0,0,0,0,0,0,0,0,0,0,0,0,0,0,0,0,0,0,0,0,0,0,0,0,0,0,0,0,0,0,0,0,0,0,0,0,0,0,0,0,0,0,0,0,0,0,-7.0281,-7.0281,0,-7.0369,-7.037,-7.0371,-7.031,-7.0307,-7.0304,-7.0302,-7.0387,-7.0391,-7.0396,0,0,0,0,0,0,0,0,0,0,0,0,0,-7.0053,-7.0057,-7.028,-7.0282,-7.0283,-7.0369,-7.037,-7.0371,-7.031,-7.0307,-7.0303,-7.03,-7.0385,-7.0391,-7.0397,0,0,0,0,0,0,0,0,0,0,0,0,0,-7.0147,-7.0059,-7.028,-7.0263,-7.0262,-7.0369,-7.037,-7.0372,-7.0311,-7.0307,-7.0303,-7.0299,-7.0383,-7.039,-7.0397,-7.0525,0,0,-7.0419,-7.0423,0,0,0,0,0,0,0,0,-7.0142,-7.0156,-7.0264,-7.0264,-7.0264,-7.0324,-7.0321,-7.0423,-7.0312,-7.0292,-7.0302,-7.0297,-7.0369,-7.0377,-7.0403,-7.0529,-7.0532,-7.042,-7.0425,-7.0428,-7.043,0,0,0,0,0,0,0,-7.0136,-7.0152,-7.0315,-7.0266,-7.0265,-7.0249,-7.0257,-7.034,-7.0352,-7.0294,-7.0289,-7.0301,-7.0368,-7.0396,-7.0404,-7.0533,-7.042,-7.0426,-7.0431,-7.0434,-7.0768,-7.0772,0,0,0,0,0,0,-7.0131,-7.0146,-7.0312,-7.0318,-7.0192,-7.0256,-7.0266,-7.0309,-7.0351,-7.0354,-7.0304,-7.0298,-7.0385,-7.0396,-7.0407,-7.0559,-7.0428,-7.0434,-7.0439,-7.0764,-7.0769,-7.0774,0,0,0,0,0,0,-7.0127,-7.0147,-7.0309,-7.0231,-7.0251,-7.0264,-7.0313,-7.0313,-7.0341,-7.036,-7.0361,-7.0331,-7.0383,-7.0397,-7.0496,-7.0561,-7.0438,-7.0444,-7.0758,-7.0765,-7.0772,-7.0864,0,0,0,0,0,0,-7.012,-7.0145,-7.0195,-7.0233,-7.0255,-7.0399,-7.0317,-7.0317,-7.0354,-7.0346,-7.0385,-7.0387,-7.038,-7.0486,-7.0503,-7.0569,-7.045,-7.0752,-7.0761,-7.0769,-7.0855,-7.0873,-7.0888,0,0,0,0,0,-7.0112,-7.0216,-7.0198,-7.0218,-7.0318,-7.0403,-7.0415,-7.0407,-7.0359,-7.0409,-7.0421,-7.0386,-7.0551,-7.0496,-7.0516,-7.0584,-7.0748,-7.0759,-7.0769,-7.0848,-7.0869,-7.0888,0,0,0,0,0,0,-7.0184,-7.0221,-7.0201,-7.0321,-7.0359,-7.0392,-7.0454,-7.043,-7.0481,-7.0472,-7.0457,-7.0466,-7.0571,-7.0587,-7.0526,-7.0709,-7.0642,-7.0656,-7.0695,-7.0716,-7.0732,-7.0726,-7.0456,0,0,0,0,0,-7.0214,-7.0281,-7.0309,-7.0412,-7.0433,-7.044,-7.0477,-7.0467,-7.0506,-7.0521,-7.0541,-7.0578,-7.0638,-7.0678,-7.0734,-7.0857,-7.0864,-7.0913,-7.093,-7.0944,-7.0956,-7.1022,-7.1045,-7.0808,-7.0807,-7.0807,0,0,-7.0275,-7.0304,-7.0347,-7.0427,-7.0456,-7.0525,-7.0454,-7.053,-7.058,-7.0532,-7.0628,-7.0644,-7.0684,-7.0796,-7.0846,-7.0813,-7.1023,-7.0957,-7.0967,-7.0973,-7.1035,-7.1058,-7.1078,-7.0814,-7.0813,-7.0812,0,0,-7.0424,-7.0453,-7.0542,-7.0572,-7.0618,-7.0622,-7.0644,-7.0681,-7.069,-7.0787,-7.0752,-7.081,-7.0914,-7.0945,-7.0974,-7.1134,-7.1104,-7.1153,-7.124,-7.1304,-7.1323,-7.134,-7.1397,-7.1418,-7.1165,-7.1166,-7.1166,0,-7.0494,-7.0599,-7.059,-7.0669,-7.0705,-7.0666,-7.0755,-7.0785,-7.0845,-7.087,-7.0832,-7.0963,-7.0987,-7.1106,-7.1145,-7.117,-7.1193,-7.1149,-7.1321,-7.1338,-7.1353,-7.1408,-7.1429,-7.1171,-7.1171,-7.117,-7.117,0,-7.0683,-7.0756,-7.0822,-7.0885,-7.0928,-7.1011,-7.1013,-7.1058,-7.1044,-7.1052,-7.1151,-7.1179,-7.124,-7.1268,-7.1254,-7.1385,-7.1363,-7.1324,-7.1255,-7.1382,-7.1433,-7.1453,-7.118,-7.1178,-7.1176,-7.1174,0,0,-7.0879,-7.0936,-7.096,-7.0988,-7.1036,-7.1091,-7.1172,-7.1235,-7.1273,-7.1316,-7.1383,-7.1472,-7.1437,-7.147,-7.1459,-7.1516,-7.1642,-7.147,-7.1471,-7.1501,-7.1787,-7.1817,-7.1841,-7.1622,-7.1626,-7.1629,-7.1784,0,-7.103,-7.1175,-7.1169,-7.1303,-7.137,-7.1335,-7.1405,-7.1441,-7.1451,-7.1507,-7.1517,-7.1581,-7.1529,-7.1549,-7.1603,-7.1615,-7.1699,-7.1604,-7.1683,-7.1686,-7.1675,-7.1868,-7.1899,-7.2044,-7.1803,-7.1807,-7.1809,0,-7.1226,-7.1278,-7.142,-7.1458,-7.1486,-7.155,-7.1607,-7.1662,-7.1701,-7.1704,-7.1742,-7.1722,-7.1803,-7.1733,-7.1843,-7.1779,-7.1811,-7.1821,-7.1827,-7.1834,-7.1756,-7.188,-7.2089,-7.2111,-7.184,-7.1838,-7.1836,0,-7.1355,-7.146,-7.1559,-7.1583,-7.163,-7.1676,-7.1697,-7.1733,-7.1771,-7.182,-7.1844,-7.1901,-7.1932,-7.1976,-7.1972,-7.1921,-7.2084,-7.2013,-7.2088,-7.2088,-7.2124,-7.2122,-7.2342,-7.2144,-7.2144,-7.2143,-7.2143,0,-7.1524,-7.1612,-7.1617,-7.1678,-7.1775,-7.1767,-7.1863,-7.1879,-7.1911,-7.1973,-7.1945,-7.2003,-7.1994,-7.2052,-7.2049,-7.2141,-7.2155,-7.2158,-7.2156,-7.2161,-7.2161,-7.2182,-7.2172,-7.2149,-7.2148,-7.2147,-7.2146,0,-7.1685,-7.1692,-7.1797,-7.1834,-7.1845,-7.1915,-7.1945,-7.2002,-7.2009,-7.2088,-7.2105,-7.2117,-7.2183,-7.2184,-7.2259,-7.2257,-7.237,-7.2356,-7.2358,-7.2355,-7.2429,-7.2423,-7.2671,-7.2703,-7.2485,-7.2487,-7.2488,0,-7.1793,-7.186,-7.1905,-7.1945,-7.197,-7.2035,-7.2075,-7.2069,-7.211,-7.2161,-7.2211,-7.2276,-7.2327,-7.2435,-7.2449,-7.2506,-7.2494,-7.2577,-7.2502,-7.2505,-7.2496,-7.2492,-7.2498,-7.2592,-7.2594,-7.2596,-7.2598,0,-7.1984,-7.1984,-7.2043,-7.2104,-7.2152,-7.2199,-7.2242,-7.2276,-7.2275,-7.2323,-7.2392,-7.2433,-7.2511,-7.2575,-7.2631,-7.265,-7.2624,-7.2621,-7.2641,-7.2647,-7.2645,-7.2648,-7.2398,-7.2615,-7.2614,-7.2612,-7.2611,-7.2611,-7.2122,-7.218,-7.2221,-7.2288,-7.232,-7.2361,-7.2417,-7.2432,-7.249,-7.2555,-7.2547,-7.2624,-7.2661,-7.2734,-7.2758,-7.2817,-7.2788,-7.2817,-7.2825,-7.2832,-7.2841,-7.2636,-7.2827,-7.2827,-7.2826,-7.2826,-7.2825,0,-7.2312,-7.2337,-7.2398,-7.2461,-7.2513,-7.2486,-7.2532,-7.2577,-7.2646,-7.2684,-7.2735,-7.2815,-7.2877,-7.2896,-7.2955,-7.2999,-7.2988,-7.3015,-7.3011,-7.3016,-7.2863,-7.284,-7.3022,-7.3022,-7.3022,-7.3022,-7.3022,-7.3022,-7.2417,-7.2515,-7.252,-7.2633,-7.2656,-7.2734,-7.2762,-7.28,-7.283,-7.2921,-7.2973,-7.2986,-7.3016,-7.3078,-7.3133,-7.3137,-7.316,-7.3192,-7.319,-7.3047,-7.3027,-7.3008,-7.2986,-7.3197,-7.3197,-7.3339,-7.334,-7.3341]}]]